Theta_e
307 307 304 303 302 303 303 304 304 304 305 304 304 303 305 305 305 299 295 296 295 291 290 294 294 290 290 288 284 287 286 291 293 289 289 288 288 292 290 293 292 290 288 289 289 286 286 306 307 301 303 306 309 310
303 303 302 302 302 303 304 303 303 304 303 304 303 303 303 304 304 302 293 296 300 293 290 296 297 297 296 295 289 287 286 290 293 287 289 287 287 288 288 286 298 291 296 293 294 293 301 307 306 308 310 310 311 311
302 301 301 302 303 303 303 303 302 303 303 303 303 302 302 303 303 301 293 295 294 288 289 288 290 295 297 298 299 287 287 292 291 291 288 289 285 289 284 290 293 298 304 297 296 301 304 307 311 312 314 313 314 315
302 302 302 302 302 302 302 302 302 302 302 302 303 303 302 302 303 303 297 295 292 290 285 286 296 292 298 296 296 296 293 295 293 291 289 288 286 291 289 291 290 293 297 299 300 304 307 309 310 312 315 316 316 317
301 302 302 302 302 302 302 302 302 302 302 302 303 302 302 303 304 299 294 295 295 289 286 286 291 293 295 294 294 295 294 292 291 290 291 287 293 291 294 292 291 297 298 298 298 307 307 305 311 314 315 316 317 316
301 301 301 301 301 302 302 302 302 302 302 301 301 301 302 302 302 294 286 293 296 295 287 282 290 291 292 293 292 292 293 291 289 288 289 291 294 293 289 290 295 297 301 306 307 313 313 312 314 316 316 317 318 318
301 301 300 301 301 301 302 301 301 302 301 301 301 301 301 302 294 289 286 297 301 295 288 285 284 292 293 291 291 291 291 290 289 287 288 290 292 297 293 288 296 300 303 305 312 312 310 312 311 316 318 319 317 317
300 300 300 300 301 302 301 301 301 301 301 301 301 300 300 301 297 290 293 302 300 293 293 284 284 288 299 290 289 291 289 291 293 290 290 289 294 295 289 295 299 301 307 310 312 313 313 316 315 316 317 317 314 312
300 300 300 300 300 301 301 301 301 301 301 301 301 300 294 290 286 289 300 302 297 291 286 287 283 282 299 294 293 292 294 289 292 288 290 290 289 289 295 300 301 305 308 307 312 312 315 314 313 314 315 315 313 312
299 300 300 299 300 300 301 301 300 301 301 301 293 288 286 288 299 300 294 290 291 292 291 285 286 283 292 293 293 291 292 289 287 288 291 288 288 294 298 303 308 309 308 310 307 306 308 310 312 312 313 316 314 313
300 300 300 300 300 300 301 300 300 301 298 289 288 283 289 301 292 291 286 286 286 285 287 287 286 284 291 288 289 293 288 288 286 286 287 284 284 292 297 301 308 308 308 309 308 312 314 311 312 313 311 314 314 313
300 300 300 300 300 300 300 301 301 291 288 289 292 296 295 288 288 284 281 285 285 281 284 283 285 286 288 296 290 294 289 288 283 289 286 282 288 293 298 305 307 307 307 309 312 312 314 312 312 314 314 314 312 312
300 300 300 300 300 300 300 300 300 298 296 291 290 289 287 285 280 281 278 281 280 284 287 287 283 285 288 294 292 291 287 284 289 284 284 286 293 298 303 305 305 307 309 309 311 311 312 314 315 316 314 314 312 310
300 300 300 300 300 300 300 301 300 298 291 286 285 279 281 281 281 281 281 282 287 290 289 289 286 286 288 288 291 286 288 288 281 280 282 291 294 297 302 307 305 306 305 309 308 311 310 311 316 316 314 313 311 307
300 300 301 300 301 300 300 301 300 294 291 286 287 279 282 285 286 288 291 289 290 290 291 289 287 287 286 288 289 287 286 283 284 284 292 294 297 298 302 303 304 304 307 307 309 310 309 310 313 313 313 312 311 309
301 300 296 301 301 301 301 300 297 294 292 288 287 284 286 286 286 289 289 288 292 292 292 291 288 284 284 285 285 284 283 283 285 293 295 297 299 300 301 303 305 307 306 307 308 308 310 311 312 311 312 312 311 309
298 290 300 301 301 301 300 295 294 290 287 287 285 287 287 286 285 288 291 292 294 291 285 286 282 282 285 283 284 287 286 287 290 296 297 298 299 300 300 302 303 305 305 304 306 307 308 306 312 311 309 309 310 309
290 295 301 301 297 296 292 294 291 289 285 287 283 285 288 289 289 291 294 295 293 293 291 286 288 283 282 284 284 287 289 291 294 297 297 298 300 301 301 300 301 301 303 305 304 306 306 304 306 306 309 309 309 308
294 298 301 300 296 291 289 290 290 284 287 288 288 289 290 290 290 291 293 294 295 296 293 291 287 282 283 286 287 288 291 296 295 295 295 296 296 298 298 298 298 297 301 302 302 304 306 306 305 306 309 309 306 305
301 301 301 301 299 292 290 291 295 289 286 289 291 288 288 289 292 294 296 296 295 293 291 289 288 290 289 291 291 291 292 293 293 292 293 296 298 298 297 297 295 294 297 301 302 299 304 305 305 307 308 308 306 304
297 297 300 297 294 292 291 291 291 290 288 289 289 288 290 293 292 292 293 296 293 292 290 291 290 292 292 291 294 291 291 292 291 292 293 293 295 296 297 299 296 295 298 299 302 303 302 305 305 306 306 307 307 305
294 300 295 296 291 293 290 294 289 292 289 291 293 291 288 287 288 292 294 291 290 290 291 289 290 287 287 289 290 290 290 291 291 291 292 292 292 294 296 297 295 296 299 300 302 302 302 302 303 304 303 301 301 301
299 297 294 295 291 288 288 295 290 290 288 289 291 289 288 287 289 291 290 290 290 291 291 291 291 291 288 288 289 289 290 289 288 289 291 291 292 292 294 295 295 300 300 302 303 303 302 295 298 303 303 302 301 300
298 291 288 286 286 283 291 287 289 288 288 287 286 285 285 286 289 287 286 288 289 290 289 288 291 289 289 289 285 286 288 287 287 288 289 291 291 292 292 294 298 302 301 301 302 302 302 301 297 302 302 301 301 300
281 282 283 276 287 286 287 286 287 287 285 287 286 286 286 287 285 282 282 284 285 289 290 290 290 289 287 288 289 290 289 288 287 286 288 290 291 291 292 294 296 299 302 302 300 301 300 300 301 301 300 301 300 299
277 286 281 285 284 285 284 284 284 284 284 285 285 287 288 286 283 281 282 286 288 289 289 287 286 286 287 288 288 289 291 292 288 287 288 290 290 291 292 292 293 294 300 302 301 299 298 298 298 300 299 298 293 300
284 284 287 290 288 288 287 287 288 285 283 283 285 285 284 281 281 284 289 290 289 290 292 292 291 290 289 291 292 292 294 295 294 291 291 291 292 293 293 293 293 295 302 303 301 300 298 297 298 300 300 301 301 300
288 290 285 287 287 287 285 284 284 284 285 287 287 283 282 282 282 286 287 290 292 293 293 294 294 293 294 296 296 295 294 296 296 297 296 292 293 294 295 296 296 290 303 303 302 300 298 298 299 301 301 300 301 302
289 290 290 287 287 287 287 286 285 287 290 288 285 284 284 286 287 286 289 292 295 294 294 295 295 297 298 298 298 298 297 296 294 292 292 290 289 292 295 296 298 300 300 298 289 295 299 299 300 303 303 303 303 303
288 290 287 287 286 285 287 290 289 291 292 292 291 290 289 288 290 296 296 297 297 297 297 297 297 296 296 296 297 297 299 298 298 296 293 291 291 294 296 297 299 299 300 299 296 294 290 298 297 303 303 303 300 299
290 289 288 288 287 289 291 294 295 294 293 292 292 289 289 291 294 296 297 297 299 299 298 297 297 297 296 296 296 296 295 299 299 300 298 296 297 297 299 300 301 301 301 300 300 301 300 301 302 302 301 298 297 297
290 288 287 287 289 293 294 291 290 289 289 288 289 291 291 290 287 293 297 297 297 297 295 298 298 297 299 299 298 297 290 298 299 302 301 300 301 303 303 303 303 303 302 302 302 302 302 302 301 299 298 298 298 297
288 289 289 288 287 287 289 290 289 289 288 287 289 290 289 289 286 292 298 300 298 297 299 301 302 302 302 301 300 298 293 295 290 288 289 291 292 297 304 305 305 305 304 304 304 304 303 300 298 298 297 296 296 296
Wind_Speed
18 19 20 16 13 13 13 13 11 10 13 12 11 8 8 10 7 5 2 3 3 2 5 4 3 3 1 2 2 3 5 2 1 1 1 3 4 3 5 3 6 7 3 6 3 5 17 6 4 11 7 2 5 6
22 19 16 13 14 13 12 12 10 11 10 9 9 7 4 7 6 5 1 1 1 3 6 4 8 12 9 8 5 3 4 3 3 3 2 1 3 4 4 5 6 8 11 7 9 10 7 7 8 5 5 5 5 9
16 15 16 15 13 13 13 11 10 9 9 9 9 7 7 7 6 6 3 1 3 1 6 2 13 12 12 18 15 5 3 5 2 4 4 2 6 2 3 4 6 7 5 6 1 19 15 10 7 6 7 6 5 8
15 15 16 14 12 13 12 11 10 10 9 10 10 9 8 8 8 5 3 2 3 2 3 7 2 5 3 9 12 16 11 3 4 3 3 4 3 4 4 5 6 8 9 6 9 14 6 10 9 6 8 10 12 12
14 14 14 14 12 12 14 11 10 8 8 7 9 8 7 8 9 2 2 4 4 3 3 7 11 17 16 15 14 15 13 5 3 3 3 4 3 4 4 4 8 6 5 9 11 4 10 8 6 5 11 14 17 19
16 14 13 12 12 10 12 12 9 9 9 7 6 5 6 6 3 4 3 1 5 5 1 5 5 7 3 8 11 12 12 6 4 5 4 4 6 2 5 6 6 6 10 17 7 3 11 14 13 10 11 18 20 21
15 14 12 9 12 11 13 11 10 10 9 7 4 3 2 0 3 3 5 0 3 4 2 5 5 5 3 4 3 3 5 4 4 3 4 4 5 6 5 11 12 11 20 18 14 4 9 6 7 7 9 13 14 15
14 13 11 9 9 13 13 11 10 9 8 6 7 4 3 3 4 3 4 9 2 2 3 3 6 5 3 2 2 3 4 2 3 4 2 4 3 6 9 12 10 20 21 13 12 3 5 7 6 10 12 17 18 16
12 12 12 10 9 10 13 11 9 8 6 7 7 4 4 2 2 4 6 11 3 3 3 3 3 4 5 3 1 1 4 3 3 5 7 3 4 7 11 7 7 22 4 5 2 6 3 9 14 12 11 13 18 14
11 12 12 12 11 10 11 10 8 8 8 10 5 2 2 4 6 4 4 3 3 3 4 4 2 4 1 3 3 1 1 4 3 7 4 6 9 18 14 9 5 7 11 6 1 2 4 6 9 14 12 2 17 16
12 12 13 12 13 12 11 10 8 11 8 3 2 3 4 9 3 1 2 3 4 4 4 5 8 6 3 4 4 3 1 2 3 5 4 4 5 8 18 12 5 3 6 4 4 2 2 3 9 12 16 9 18 16
13 13 12 14 13 13 11 12 11 5 3 5 2 1 0 1 3 4 4 3 5 6 4 4 5 5 4 3 1 3 3 3 6 2 3 4 5 10 5 9 5 3 7 6 5 9 7 6 7 8 10 11 11 14
12 13 13 13 14 13 12 11 12 9 5 2 1 3 2 3 4 5 6 4 4 4 2 1 2 4 1 2 2 4 3 6 2 1 4 4 6 10 1 7 3 4 4 3 7 8 7 7 5 5 7 8 10 12
11 10 12 14 13 14 13 12 15 7 3 2 3 2 4 5 5 5 5 4 5 3 3 2 3 4 3 3 4 2 5 1 3 2 3 5 11 11 5 4 4 1 4 5 11 11 9 8 2 7 9 8 10 12
12 11 12 12 14 15 13 12 13 2 2 3 4 5 8 5 4 4 3 2 3 1 2 3 4 3 2 3 2 1 2 3 1 1 2 5 9 8 6 5 5 5 4 2 6 5 5 5 5 10 9 9 10 12
11 8 3 11 14 13 12 13 3 2 3 4 6 5 5 3 4 2 4 4 3 2 1 2 3 3 4 3 3 4 2 4 2 1 3 2 5 7 6 4 5 9 5 6 4 4 9 5 7 9 10 9 11 14
8 2 12 14 13 12 16 3 3 4 4 5 5 4 6 4 5 4 1 2 4 3 3 4 4 5 2 2 2 3 3 2 2 0 2 4 6 5 5 4 5 4 5 6 4 5 4 5 5 8 10 6 7 9
1 6 18 15 8 7 2 1 3 4 7 5 3 4 3 4 3 3 5 7 3 2 4 3 3 3 4 5 3 2 0 0 1 0 1 1 1 4 2 6 4 6 5 6 5 5 5 6 5 5 9 10 11 11
5 8 17 16 6 4 4 4 4 4 7 3 3 3 3 4 4 4 3 2 5 3 3 1 2 0 2 0 1 1 1 1 2 1 1 0 2 2 4 5 6 6 6 5 5 4 4 6 4 4 7 7 8 7
10 11 13 13 3 0 4 3 4 4 3 3 2 3 3 3 3 1 3 2 2 2 2 2 3 2 1 2 3 2 1 0 2 3 3 4 4 6 7 5 4 4 3 4 3 3 3 5 5 4 5 8 9 8
4 5 5 5 2 4 4 3 3 3 2 3 2 2 2 1 1 3 2 1 3 3 3 3 4 4 4 3 4 3 5 4 2 1 1 2 4 4 5 5 5 4 4 3 4 4 7 4 4 4 5 6 7 7
2 11 2 3 4 5 5 5 3 3 3 2 1 1 2 1 2 3 2 5 3 3 3 1 2 3 4 4 5 4 3 5 5 3 6 4 4 5 4 4 5 4 4 3 3 4 4 3 3 4 8 9 8 11
7 3 3 4 4 3 6 5 4 6 1 1 1 2 2 3 1 2 3 3 2 2 1 1 2 2 4 5 4 4 3 4 4 4 4 4 3 3 2 4 3 4 4 4 3 5 5 4 5 8 8 10 11 11
3 2 3 3 4 5 5 4 2 2 2 2 1 3 3 3 4 3 3 2 1 1 1 3 3 4 3 4 3 2 3 2 3 3 2 3 3 4 4 3 3 3 3 3 4 5 5 5 6 7 9 10 9 11
3 4 4 5 2 3 5 6 6 5 4 4 3 4 3 4 3 3 1 1 1 2 3 3 3 3 4 4 4 5 4 3 2 3 3 1 1 2 3 4 4 2 1 6 4 5 4 5 6 7 8 9 11 11
3 2 2 3 3 3 2 4 4 5 4 4 4 4 3 2 2 1 2 2 2 3 3 4 5 4 5 6 7 5 6 3 4 3 3 4 3 3 2 4 2 3 1 4 7 6 6 5 6 9 9 10 10 11
4 4 3 2 1 2 3 3 3 3 3 4 3 5 3 4 2 2 2 2 3 3 4 5 5 6 7 6 6 6 4 4 5 4 2 4 4 4 3 4 4 2 2 5 5 6 8 7 7 9 10 8 7 8
1 4 3 5 5 5 4 3 5 5 4 4 4 4 4 4 3 3 4 5 7 7 6 6 5 6 6 6 4 4 4 4 4 3 3 1 2 2 3 1 1 3 5 5 6 7 7 7 8 10 11 11 10 8
4 3 4 7 5 5 5 4 4 3 3 3 4 3 3 2 3 4 6 7 8 5 5 2 2 2 3 2 2 5 5 6 7 7 8 6 3 3 3 2 2 4 5 6 7 8 9 7 7 10 12 11 9 7
5 3 4 5 4 4 3 2 3 3 2 3 2 2 2 2 4 6 8 9 7 4 3 2 2 1 2 3 3 5 4 5 3 3 5 7 5 4 4 4 3 4 5 7 8 7 8 10 10 9 9 7 6 6
3 3 4 4 3 2 2 3 3 2 2 3 2 3 5 3 3 4 10 9 7 5 5 4 5 5 4 5 4 5 3 1 4 5 5 5 5 5 4 4 5 6 7 8 8 9 9 9 9 9 8 7 7 7
3 3 3 3 2 2 1 2 2 1 1 4 8 4 5 5 9 10 12 11 12 11 9 7 5 4 4 3 3 2 3 3 2 3 8 5 5 6 7 6 6 7 8 8 8 8 10 10 7 7 7 9 8 9
3 3 3 3 2 2 3 1 1 3 2 4 7 9 6 4 5 5 7 9 9 10 8 7 7 7 8 8 6 5 6 5 6 7 9 9 8 9 8 8 8 10 11 9 8 8 7 9 9 9 9 10 9 9
Wind_Direction
206 175 148 154 168 186 198 195 199 204 194 207 210 228 242 215 223 142 233 199 156 252 277 220 239 210 64 142 171 267 1 295 299 120 319 324 307 310 299 277 227 227 209 224 141 180 257 180 136 178 226 302 166 168
134 140 152 170 185 189 186 186 194 193 194 201 202 216 223 205 226 145 218 235 142 191 252 227 249 229 215 199 157 244 216 213 182 108 198 253 291 305 314 279 324 241 216 240 185 215 239 241 215 236 163 180 225 143
142 155 175 178 184 181 175 179 183 185 192 202 201 211 223 222 232 173 168 214 74 327 280 247 250 247 219 217 199 181 263 219 188 159 153 251 261 278 261 281 314 318 317 233 89 250 247 257 246 200 191 158 169 143
161 171 177 171 166 169 180 183 189 196 200 209 212 216 224 233 238 198 179 189 117 221 264 275 307 261 231 204 197 210 224 49 123 124 159 202 239 203 244 264 264 257 300 281 278 286 277 266 255 229 148 122 123 134
164 159 165 172 180 185 189 187 177 189 194 191 189 206 226 236 237 178 158 208 188 161 284 292 291 268 241 229 211 200 210 169 163 172 199 217 205 231 223 236 233 208 269 250 252 271 292 255 275 246 159 150 147 140
164 160 161 167 173 171 162 166 175 180 178 181 192 209 236 255 126 89 342 264 194 164 300 298 278 275 230 175 185 196 201 192 171 161 215 238 232 225 257 260 234 233 288 266 250 262 267 278 281 257 192 162 155 150
152 155 153 161 175 173 163 166 171 173 176 181 184 122 45 278 110 155 186 227 128 133 218 283 281 270 278 126 132 120 131 174 150 205 226 247 250 208 266 262 275 300 285 287 245 228 274 272 271 253 142 140 127 123
158 156 157 153 157 164 160 165 173 176 179 184 149 113 52 62 52 323 232 225 194 105 274 268 272 320 6 262 132 150 122 141 192 212 234 216 235 201 244 253 292 297 285 254 273 223 247 227 59 72 122 128 121 121
158 167 160 162 157 161 168 166 168 173 177 152 133 80 52 62 169 238 242 202 150 146 266 244 270 280 338 313 132 176 159 149 214 206 226 200 227 241 237 226 272 299 338 323 248 315 59 92 91 79 94 113 110 109
165 163 168 173 173 167 163 165 167 161 129 117 72 73 246 234 251 47 347 100 172 213 214 244 262 263 37 1 301 270 200 194 221 228 140 204 249 248 250 230 239 334 325 332 75 323 105 88 95 100 61 317 104 92
177 182 183 176 180 178 177 174 165 133 75 72 158 195 241 308 82 103 181 182 197 239 213 229 202 220 231 173 260 209 184 251 234 258 188 218 262 241 235 210 175 216 303 4 205 193 148 92 109 103 97 314 114 150
182 182 184 187 180 182 183 175 159 93 158 179 171 335 330 17 174 176 191 198 221 234 211 196 220 192 255 171 151 227 188 250 243 187 222 275 263 306 206 153 142 281 322 8 56 88 61 103 91 107 122 186 171 156
182 183 185 181 181 178 180 173 149 131 111 43 96 235 211 216 200 203 191 199 224 219 221 16 296 199 247 229 157 238 235 233 344 235 220 234 317 331 195 124 157 328 319 53 56 76 53 30 337 238 177 181 175 138
176 177 181 183 180 177 178 169 147 127 94 167 229 248 217 207 232 201 203 207 243 209 145 129 281 197 207 165 176 249 237 331 303 296 295 318 326 310 271 141 135 159 316 123 78 54 31 10 82 118 111 138 143 133
167 176 171 174 178 170 172 164 146 85 177 216 216 231 223 234 244 204 198 242 234 218 205 47 261 207 243 198 195 260 272 280 264 288 277 306 328 4 60 50 82 94 76 97 163 141 198 214 137 156 168 152 134 116
157 141 164 161 157 163 156 130 89 141 232 222 224 245 242 259 274 201 199 220 173 120 101 163 234 215 203 181 160 213 221 220 228 194 265 48 354 6 2 42 54 49 360 106 78 173 216 246 197 140 119 128 130 135
120 142 156 149 153 161 152 148 177 219 232 230 236 217 252 272 239 258 203 199 133 204 163 203 203 196 117 143 218 201 220 193 190 29 346 40 71 302 333 38 47 59 31 45 30 23 118 140 110 100 101 80 98 116
96 153 145 146 123 113 40 201 260 229 240 237 232 248 211 221 234 232 221 234 195 211 164 220 141 160 180 177 224 238 71 95 355 4 71 61 58 304 22 358 32 41 26 10 21 25 41 105 119 93 107 109 104 102
144 143 150 150 147 144 166 214 189 250 239 249 255 267 228 253 249 240 257 131 193 183 157 24 47 130 222 296 114 208 107 114 110 19 6 36 182 50 51 41 39 35 27 8 12 55 61 61 72 108 122 115 115 122
130 148 162 171 96 241 240 216 188 240 256 274 261 262 269 247 286 358 32 6 74 30 75 53 32 5 23 12 357 29 9 55 106 64 11 360 4 19 25 359 356 354 56 51 64 31 75 71 46 50 114 129 131 135
122 169 143 150 230 223 271 251 224 202 231 259 308 266 284 299 50 76 48 347 55 32 71 42 29 11 19 30 22 15 41 32 47 129 171 359 343 14 355 339 359 42 71 70 73 36 48 65 70 98 103 103 109 107
223 146 126 164 242 215 228 206 225 193 189 249 239 324 291 20 94 165 113 51 57 30 39 17 347 338 350 6 347 354 353 21 18 29 29 15 23 11 0 335 15 43 43 44 74 80 78 62 70 88 93 92 91 99
158 157 233 210 257 266 257 146 198 169 155 270 79 15 1 20 348 17 75 72 104 61 129 253 330 337 314 302 328 337 357 20 26 18 20 9 16 29 26 14 33 99 67 24 54 82 80 77 79 95 98 105 106 97
184 198 234 240 194 279 329 330 321 12 99 49 12 54 25 350 343 69 94 97 122 330 356 335 338 322 323 323 306 297 312 327 331 328 350 21 33 9 3 26 44 43 80 79 55 66 66 72 81 101 111 109 113 119
60 293 97 319 271 335 355 359 348 13 26 10 48 26 351 7 47 43 5 280 271 289 289 293 294 280 272 277 277 276 268 208 210 261 279 163 91 0 5 32 49 41 26 101 82 85 72 70 80 95 101 110 113 118
63 297 91 328 322 52 357 18 18 2 15 31 20 325 331 345 29 342 249 232 233 230 229 226 238 252 254 242 259 255 252 201 170 214 252 203 168 156 190 132 81 355 339 124 125 115 101 94 99 106 106 102 98 107
29 334 329 4 60 38 54 54 32 34 23 10 351 348 355 354 326 280 294 253 242 237 241 244 229 227 242 250 228 227 221 201 198 206 179 174 172 190 190 161 151 239 155 122 113 123 125 117 108 109 107 98 104 117
353 14 34 351 51 12 56 41 19 10 357 346 323 10 5 355 296 291 257 264 276 277 264 253 233 222 233 251 210 165 173 176 169 159 128 96 189 219 219 205 80 77 116 116 117 112 115 119 125 123 119 116 109 89
33 357 58 45 54 46 32 24 6 342 320 340 345 338 319 245 242 249 282 286 284 264 268 259 218 218 219 209 182 171 153 155 162 166 166 169 157 236 203 152 63 73 92 87 77 109 120 118 124 128 124 120 124 115
7 17 82 39 42 37 17 16 324 310 319 324 307 272 277 261 263 296 338 356 355 6 35 43 92 115 121 136 116 103 127 151 188 166 165 174 182 171 150 141 108 104 104 108 107 108 98 106 105 107 107 114 111 115
72 61 64 35 53 6 334 304 286 293 10 344 303 345 342 306 306 318 358 349 353 21 48 47 45 41 66 83 98 93 97 146 175 158 138 138 142 144 143 121 113 113 117 123 130 129 126 127 130 134 126 118 127 129
46 71 110 91 43 295 317 323 26 145 272 3 13 337 355 2 10 351 354 355 13 21 23 47 51 48 44 47 54 68 157 144 166 136 141 128 115 113 113 113 114 116 117 121 123 125 126 122 122 128 132 128 123 123
55 60 88 129 170 252 238 146 274 271 360 18 37 20 16 14 7 332 335 2 12 8 12 29 43 52 59 64 67 66 59 57 56 66 88 98 107 116 116 113 115 114 114 119 127 121 98 121 128 120 119 122 120 115